Wind_Speed
18 17 17 18 17 18 18 20 21 22 22 20 16 11 9 9 9 10 11 13 14 15 16 18 20 20 20 20 20 22 22 20 16 14 15 15 14 14 14 15 16 16 16 15 15 15 15 14 14 13 13 12 12 11 10 9 8 7 7 7 7 7 7 7 7 7 7 7 7 7 7 6 6 6 6 7 6 6 6 5 5 4 4 3 3
17 17 17 17 17 17 17 19 20 21 22 20 16 11 9 9 9 10 11 13 14 15 16 18 19 20 20 20 20 22 21 20 17 16 15 15 15 14 14 14 15 16 16 16 16 15 15 15 14 14 13 12 12 11 11 10 9 8 8 8 8 8 8 8 9 8 8 8 8 7 7 7 6 6 6 6 6 5 5 5 5 5 5 5 4
17 17 16 17 17 16 17 18 20 21 21 20 16 12 10 9 9 10 11 13 14 15 16 18 19 20 20 20 20 21 21 19 18 17 16 16 16 15 15 15 15 15 16 16 16 16 15 15 15 14 14 13 12 11 11 10 10 9 8 8 9 9 9 9 9 9 8 8 7 7 7 7 7 7 6 6 5 5 5 5 5 5 5 5 5
17 17 16 16 16 15 17 17 19 21 21 20 16 12 10 9 9 10 11 13 14 16 17 18 19 19 20 20 19 20 20 19 18 18 17 16 16 16 15 15 14 14 15 16 16 17 16 16 15 15 14 13 12 11 11 10 10 9 9 9 9 9 9 9 9 9 8 8 8 8 8 8 8 7 7 6 6 6 6 5 5 6 6 6 6
17 16 15 16 15 15 16 17 19 20 20 19 15 12 11 10 10 10 11 13 14 16 17 18 19 19 19 20 19 18 19 19 18 18 18 18 17 16 15 15 14 14 14 15 16 17 17 16 16 15 14 14 12 11 11 10 10 9 9 9 9 9 9 9 9 9 9 9 9 8 8 8 8 8 8 8 7 7 7 7 7 7 7 7 7
16 15 15 15 14 15 16 17 18 19 20 18 15 12 11 10 10 11 12 13 15 16 17 18 19 19 19 20 19 17 18 19 18 18 18 18 18 16 16 15 14 13 13 15 16 17 17 16 16 15 15 14 13 12 11 10 10 10 9 9 9 9 9 9 9 9 9 9 9 9 9 9 9 9 8 8 8 8 7 7 8 8 8 8 8
14 14 14 13 13 14 15 16 18 19 19 17 14 12 11 11 11 11 12 14 15 16 17 18 19 19 19 19 19 17 17 18 18 18 18 18 18 17 15 14 13 12 12 14 15 16 17 16 16 16 15 14 13 13 12 11 10 10 10 9 9 9 9 10 10 10 10 9 9 9 9 9 9 9 9 9 8 8 8 8 8 9 9 9 9
12 14 14 13 13 13 15 16 18 18 18 16 14 12 12 11 11 12 13 14 15 16 17 19 19 19 19 19 18 17 16 17 18 18 18 18 18 17 15 13 12 11 11 13 15 16 16 16 16 16 15 14 13 13 12 11 11 10 10 10 9 9 10 10 10 10 10 10 10 10 10 10 10 10 9 9 9 9 9 9 10 10 10 10 10
12 14 13 13 13 14 14 16 17 17 17 16 13 12 12 12 12 13 13 14 15 16 17 18 19 19 19 19 18 16 16 17 18 18 18 18 18 17 16 14 12 10 11 12 14 15 16 16 16 16 15 14 13 13 12 12 11 11 10 10 10 10 10 10 11 11 11 11 11 11 11 11 11 11 11 11 11 11 11 11 11 11 10 11 11
13 14 14 13 14 14 15 15 16 17 17 15 13 12 12 12 12 13 14 14 15 16 17 18 18 18 18 18 17 16 16 17 17 17 17 17 17 17 16 14 12 11 11 13 14 14 15 16 16 15 15 14 13 12 12 11 11 11 10 10 10 10 10 10 10 11 12 12 12 12 12 12 12 12 12 12 12 12 12 12 12 12 12 12 12
14 15 15 14 15 15 15 15 16 16 16 14 13 12 12 12 12 13 14 14 15 16 17 17 17 17 18 17 16 16 16 16 17 17 17 17 16 16 15 14 12 11 12 14 14 14 14 15 15 15 14 13 12 12 12 11 11 10 10 10 10 10 10 10 10 11 11 11 12 12 12 13 13 13 13 13 13 14 14 14 14 14 14 13 13
15 16 16 16 16 15 15 15 16 16 16 14 13 12 12 12 12 13 13 14 14 16 17 16 17 17 17 16 15 15 15 16 16 17 16 16 16 15 14 14 13 12 13 14 14 14 14 14 14 14 14 12 12 12 12 11 11 10 10 10 11 11 11 11 11 11 11 11 12 12 13 13 14 14 14 14 14 14 14 14 14 14 14 14 14
15 15 16 17 17 16 16 15 16 16 16 15 13 12 12 12 12 13 13 14 14 15 15 15 16 16 15 15 15 15 15 16 16 16 16 16 15 14 14 14 14 14 14 14 14 13 13 13 14 14 13 12 12 12 12 11 11 11 11 11 11 12 12 12 12 12 13 13 13 13 14 14 14 15 15 15 15 14 14 14 14 13 13 13 13
14 16 17 17 17 17 16 16 16 16 16 14 13 12 12 11 12 12 13 13 14 14 14 15 15 15 15 15 15 15 16 16 16 16 16 15 15 14 14 13 14 14 14 14 13 13 13 13 14 14 13 13 13 13 13 12 11 10 11 11 12 12 13 13 13 13 14 14 14 14 14 14 15 15 15 15 15 15 15 15 14 14 14 13 12
14 16 17 17 17 16 16 16 16 16 15 14 13 12 11 10 11 12 12 13 13 13 14 15 14 14 14 15 16 16 16 16 16 15 15 15 15 15 14 13 13 14 14 13 13 12 13 13 14 14 14 14 14 14 13 12 11 10 11 11 12 12 13 14 14 14 14 14 15 15 14 15 15 15 15 16 16 16 16 16 15 15 14 14 13
14 16 16 17 17 16 16 16 16 16 15 13 12 11 10 10 11 12 11 12 13 13 14 14 13 14 15 16 16 16 16 16 15 14 14 14 15 15 15 14 13 13 13 13 12 12 13 13 14 15 15 15 15 14 14 13 12 11 11 11 12 12 13 13 14 14 14 14 14 14 14 15 15 15 16 16 16 17 16 16 15 15 14 13 13
13 15 16 16 17 17 17 16 16 15 14 13 12 11 10 10 11 11 11 11 12 13 13 12 12 14 15 15 16 16 16 15 15 13 12 12 13 14 14 14 13 12 12 12 12 12 12 13 14 15 16 16 16 15 15 14 14 13 13 12 12 12 13 13 13 14 13 14 15 15 15 15 16 16 16 16 16 17 17 17 16 15 14 13 13
13 14 15 15 16 16 16 16 16 15 14 14 13 11 10 10 11 11 11 11 12 12 12 11 13 14 15 15 15 15 14 14 13 12 11 11 12 13 13 13 13 12 11 10 11 12 12 13 13 15 16 16 16 16 16 15 15 15 14 14 13 13 13 13 13 13 13 13 14 15 15 16 17 17 18 18 18 18 18 18 18 17 16 15 14
13 14 15 15 15 15 16 16 16 15 15 15 14 12 11 11 11 11 11 11 12 11 11 11 13 14 14 14 13 13 12 12 12 11 11 10 11 11 12 12 13 12 11 10 10 11 12 13 14 15 16 16 17 16 16 16 15 15 15 14 14 13 13 13 13 13 13 13 14 15 15 16 17 18 19 19 19 19 19 19 19 19 18 17 15
13 14 14 15 15 15 15 15 16 15 15 15 15 13 12 12 12 11 11 11 11 11 11 12 13 13 13 13 12 11 11 11 10 10 10 10 10 10 11 11 12 12 12 11 10 10 11 13 15 16 17 17 17 17 16 16 15 15 15 15 14 13 13 13 13 13 13 13 14 14 15 16 16 18 19 19 19 20 20 20 20 19 19 18 17
14 14 14 15 15 15 15 15 16 16 16 16 15 14 13 13 12 12 11 11 11 11 12 12 13 13 13 12 11 10 10 10 9 8 8 9 10 10 10 11 12 12 13 12 12 12 12 13 14 16 17 18 18 18 17 17 16 15 15 15 15 14 14 14 14 14 13 13 15 15 15 16 16 17 18 19 19 19 20 20 20 20 20 19 18
15 14 14 15 15 15 15 15 16 17 17 17 15 15 14 13 13 13 12 12 12 11 12 13 14 13 12 11 10 9 8 8 8 7 7 8 9 10 10 10 11 12 13 14 14 14 15 15 15 16 16 17 18 18 18 17 17 16 16 15 15 15 16 15 15 15 14 13 16 16 16 16 16 16 17 18 19 19 19 20 21 21 20 19 18
16 15 14 14 14 15 15 16 17 17 18 17 16 16 15 14 14 13 12 12 11 11 12 13 14 13 12 11 9 8 7 7 8 8 8 8 9 10 10 10 11 12 13 15 16 17 18 18 17 17 16 17 17 17 18 17 17 17 16 16 16 16 16 17 16 17 15 14 16 16 16 17 16 17 18 19 20 20 21 21 21 21 20 19 18
17 16 15 14 14 14 15 16 17 18 18 18 17 17 16 15 14 13 12 12 11 10 11 13 14 14 13 11 9 8 7 7 8 8 9 9 9 9 9 10 10 12 13 15 17 19 20 19 19 18 18 18 17 17 17 17 17 17 17 17 16 16 16 17 17 17 16 15 17 17 16 17 17 18 19 19 20 22 23 23 22 21 19 18 18
17 17 15 14 14 15 16 17 18 19 19 19 19 18 16 16 15 13 12 12 11 10 12 13 13 13 12 11 9 8 7 7 8 8 9 9 8 8 9 9 10 11 13 14 16 18 19 19 19 18 18 18 18 17 16 17 17 17 17 17 16 16 16 17 17 18 17 16 17 17 16 16 17 18 19 19 20 22 24 24 22 19 17 17 17
17 16 16 15 15 17 17 18 19 19 19 19 19 18 17 16 15 13 12 12 11 10 12 13 13 13 12 11 9 8 8 7 7 8 8 8 7 8 8 9 8 10 12 12 14 16 17 18 19 19 19 19 18 17 16 16 16 16 16 16 16 16 15 16 17 17 18 17 17 18 16 16 16 17 18 19 20 22 24 24 20 17 16 16 17
17 16 16 17 17 19 19 20 20 20 20 20 20 19 18 17 15 14 13 12 11 11 12 12 12 12 11 10 8 8 8 8 7 7 7 6 6 7 7 8 7 8 11 11 12 13 15 17 18 19 19 19 18 18 17 16 15 15 15 15 15 15 15 15 16 17 18 18 18 18 17 16 16 17 18 18 20 21 23 22 19 17 16 16 17
17 17 18 18 20 21 21 21 21 21 21 21 21 19 18 17 16 15 14 13 12 11 12 12 11 11 10 10 8 8 7 8 7 7 6 6 7 7 8 8 8 9 10 11 12 13 14 15 16 17 18 19 20 19 19 18 17 16 15 15 15 15 15 15 16 17 18 18 17 18 18 18 17 17 18 18 19 20 21 21 19 18 19 19 18
17 18 19 20 22 22 22 22 22 23 22 22 21 19 19 18 17 16 14 13 13 12 12 11 10 10 10 9 9 9 8 8 8 7 6 5 6 7 8 8 9 9 11 12 13 14 15 16 17 18 19 20 21 21 20 20 20 19 18 17 17 16 17 17 17 18 19 18 18 19 19 19 18 18 18 19 19 20 20 20 20 19 20 20 19
17 19 20 22 24 24 24 24 24 24 23 23 21 20 19 19 18 17 15 15 14 13 12 11 10 9 8 9 9 9 9 9 8 8 8 7 8 8 9 10 11 12 13 13 15 16 17 18 18 19 20 20 21 21 20 20 20 20 20 19 19 18 18 18 19 19 20 19 19 20 20 20 19 18 18 18 19 20 20 20 20 19 20 19 18
17 19 21 23 25 25 26 26 25 25 25 23 21 20 20 20 19 18 17 16 15 14 13 12 11 9 7 7 8 8 8 9 9 11 11 11 11 11 11 13 14 15 16 16 17 18 18 19 19 19 19 20 21 21 21 21 21 20 21 21 20 20 20 20 19 20 20 20 19 20 20 20 20 20 19 18 18 19 20 19 20 20 19 19 18
18 20 22 24 26 27 27 27 27 27 26 23 21 21 21 21 20 19 18 17 16 16 15 14 12 10 8 7 7 7 7 8 9 11 11 12 13 12 12 13 14 16 16 16 17 18 19 20 21 20 20 20 20 21 22 22 22 22 22 22 22 22 22 22 21 21 20 20 19 19 20 20 20 20 20 19 18 19 20 20 20 20 20 19 18
20 20 22 25 26 28 28 28 28 28 25 22 22 22 22 22 20 20 19 18 18 17 16 15 14 11 9 8 7 6 7 8 9 10 11 12 13 13 13 14 15 16 17 17 18 18 19 20 22 22 21 21 21 21 21 21 22 24 24 24 23 23 24 23 23 22 22 21 20 19 19 20 20 20 20 19 19 19 20 20 20 20 20 19 19
20 22 24 25 26 27 27 28 28 26 22 21 22 22 22 22 22 21 19 19 18 18 17 16 14 11 10 10 7 6 7 8 9 10 11 12 13 13 14 15 15 16 17 18 18 19 19 20 21 22 22 23 22 22 22 22 23 24 25 25 24 24 24 24 24 24 24 23 22 21 19 19 20 21 20 19 19 20 20 20 20 19 19 19 19
21 23 24 24 25 25 26 28 26 22 20 21 22 21 22 23 22 21 20 19 19 19 19 18 16 14 13 10 8 8 8 9 10 11 12 13 14 15 15 16 16 17 18 18 19 19 20 20 21 22 23 23 23 23 23 23 23 23 24 24 24 24 25 25 25 25 25 24 24 23 21 20 20 21 21 19 19 20 20 20 20 19 19 20 19
22 24 24 24 24 24 26 28 25 22 21 22 22 23 23 23 22 21 21 21 21 22 22 20 18 15 12 8 7 9 9 10 12 13 13 14 15 16 17 17 18 18 19 19 20 20 21 22 23 23 24 24 25 25 24 24 24 24 25 24 24 24 25 25 25 25 25 26 25 24 22 21 20 21 21 21 20 20 20 20 20 19 19 19 19
25 24 24 24 25 25 26 27 26 24 24 25 25 26 25 23 21 21 21 20 21 22 22 20 17 13 9 7 8 10 11 12 13 14 15 15 16 17 18 19 19 20 20 20 21 22 23 24 24 25 25 25 26 26 26 25 25 25 25 25 26 25 25 26 26 26 26 27 27 26 24 22 21 20 21 22 21 20 19 19 20 20 19 19 19
25 26 25 26 26 27 27 27 26 26 26 27 27 27 25 22 21 22 22 21 19 18 17 15 12 9 10 10 10 12 13 14 15 15 16 17 18 19 20 20 20 21 22 23 23 24 24 25 26 26 27 27 27 27 27 27 26 26 26 27 27 27 26 27 27 27 27 27 28 27 26 24 22 21 21 21 22 21 19 18 19 20 19 19 19
24 26 26 26 26 27 28 28 27 27 27 27 26 26 25 23 23 23 23 22 19 15 13 11 10 10 12 12 13 14 14 15 16 17 18 19 19 20 21 22 22 23 24 25 26 26 26 27 28 28 28 29 29 29 29 28 27 27 27 27 28 28 28 28 28 28 28 28 28 27 26 26 24 23 22 21 22 22 21 19 18 19 20 19 18
27 24 23 23 24 25 27 28 28 28 28 28 27 25 25 24 23 22 22 20 17 13 10 11 12 12 13 13 15 16 16 17 18 19 19 20 21 22 22 23 24 25 26 27 27 28 28 29 30 30 31 31 31 31 31 31 30 29 29 29 29 29 29 29 29 29 28 28 28 27 26 27 27 26 24 22 21 21 21 20 19 19 20 19 19
27 25 24 22 22 24 26 27 28 28 27 28 28 26 23 21 21 19 18 16 13 10 9 11 13 13 14 15 16 17 18 19 19 20 20 21 21 22 23 24 25 26 27 28 28 29 30 30 31 31 32 32 33 33 33 33 33 32 32 32 32 31 30 30 30 30 29 28 28 27 27 27 28 28 25 24 23 21 21 21 20 20 20 20 19
28 27 25 24 23 24 24 25 26 24 23 23 24 23 21 19 19 16 15 14 11 9 9 11 13 14 15 15 16 18 19 19 20 20 21 21 22 23 24 25 26 27 27 28 29 30 30 31 31 32 33 33 33 34 34 34 34 34 33 33 33 33 32 31 31 31 30 29 29 28 28 28 28 28 27 26 25 23 22 21 21 21 21 21 20
27 27 26 25 24 23 22 23 23 22 20 19 19 19 18 18 16 12 12 12 10 9 9 12 13 14 15 16 17 18 19 20 20 21 22 22 23 23 24 25 26 27 28 29 29 30 31 31 32 33 33 34 34 35 35 35 35 35 35 35 35 35 34 33 32 32 32 31 31 30 29 30 29 29 29 28 26 24 23 22 22 22 22 22 20
25 25 25 24 23 22 21 20 21 22 21 19 18 17 15 14 13 11 10 8 8 8 10 12 14 15 16 17 18 18 19 20 21 22 23 23 23 24 25 26 27 27 28 29 30 30 31 32 33 34 34 35 36 36 37 37 37 37 37 37 37 37 36 35 33 33 34 33 33 32 31 30 30 31 31 30 28 26 24 23 23 23 23 23 22
23 24 24 22 20 21 21 20 19 20 21 19 16 15 13 11 11 10 9 9 10 10 11 13 14 15 16 17 18 19 21 22 23 24 24 24 24 24 25 26 26 27 28 29 30 30 31 32 33 34 34 35 36 37 37 38 38 38 38 38 37 37 36 36 35 34 34 35 35 34 33 32 31 31 32 31 30 29 27 27 26 25 24 24 25
22 23 23 20 19 19 19 17 16 16 17 16 13 11 10 10 10 9 9 11 11 12 13 14 15 16 17 19 20 21 22 23 24 25 25 25 25 25 26 27 27 27 28 29 29 30 31 32 32 33 34 34 35 36 37 38 39 39 39 39 39 38 37 36 36 34 33 34 36 36 35 34 33 32 32 32 32 31 31 31 29 27 26 25 25
20 21 22 19 17 16 16 16 17 17 16 15 13 11 11 11 13 13 12 11 11 13 14 14 16 17 18 20 21 22 23 24 24 24 25 25 25 25 26 27 28 28 29 29 30 31 32 32 33 34 34 35 36 37 37 38 39 39 39 39 40 40 39 38 38 36 33 32 34 36 36 35 34 34 34 33 33 32 33 33 32 30 29 28 26
19 20 19 16 14 15 18 20 21 21 19 18 15 13 13 15 16 14 12 11 12 13 14 15 17 18 19 21 21 22 23 24 24 23 23 24 24 25 26 27 28 28 29 30 30 31 32 33 34 35 36 36 37 37 38 38 38 39 40 40 40 40 41 40 40 39 37 33 32 33 36 37 36 35 34 34 34 34 33 34 35 34 32 31 29
19 19 17 16 16 18 19 19 18 18 19 18 16 15 15 16 15 14 13 13 14 15 16 17 18 19 20 21 22 23 23 23 23 23 23 24 25 26 27 27 28 29 30 31 32 32 33 33 34 35 36 36 37 37 37 38 39 39 40 40 41 41 41 41 41 41 41 39 35 33 33 35 36 36 37 36 36 35 35 35 36 36 35 33 31
17 18 19 19 20 19 18 18 18 18 19 18 17 15 16 15 14 14 14 15 16 17 18 19 19 20 21 22 22 22 23 23 23 23 23 24 25 26 27 28 30 31 32 33 34 34 34 34 34 35 35 36 37 37 37 38 38 39 39 40 40 40 40 40 41 42 42 42 41 38 36 34 34 35 37 38 38 37 37 37 37 38 38 36 33
15 16 18 18 19 18 18 20 20 20 20 18 15 13 13 13 12 14 15 16 17 17 18 19 20 20 21 22 22 22 22 22 22 23 23 24 25 27 28 30 32 33 35 35 36 36 36 35 35 35 36 36 37 37 38 38 38 38 39 39 40 40 40 40 40 41 41 41 42 41 40 38 36 35 35 36 38 39 39 39 39 39 40 39 36
Wind_Direction
308 305 309 313 320 325 328 330 332 333 335 336 327 318 317 324 331 340 346 349 348 348 352 354 357 358 359 360 0 2 3 6 7 9 8 7 7 6 6 6 6 6 5 3 3 3 3 3 3 4 9 13 15 15 13 14 16 16 13 12 10 9 7 5 7 11 15 17 17 15 15 13 11 8 4 1 358 353 350 346 344 343 339 335 330
303 300 304 308 317 322 325 329 330 332 334 334 326 316 315 321 328 336 341 345 344 345 350 354 357 357 358 358 360 2 5 9 11 11 9 5 2 360 357 357 359 1 4 4 4 3 2 3 3 3 7 11 13 13 12 13 13 15 13 11 9 7 6 3 3 5 8 11 12 8 5 4 3 4 1 357 353 348 344 340 337 335 332 329 325
296 295 300 306 314 319 325 327 329 331 333 333 326 316 313 318 323 331 337 340 341 343 349 353 355 356 357 357 359 2 5 10 12 11 9 6 1 357 353 350 350 354 359 3 4 3 2 3 3 2 4 8 10 11 11 12 11 12 10 9 7 5 3 1 359 358 0 2 3 2 358 358 356 356 352 348 342 338 334 333 331 327 324 321 319
292 293 300 304 310 318 324 326 328 330 332 332 325 316 312 316 320 327 333 336 337 341 348 351 353 355 355 355 357 0 4 7 8 8 6 4 1 358 353 349 346 347 354 359 3 3 3 2 2 1 1 3 6 7 8 10 10 10 8 6 5 3 359 357 354 351 350 352 355 356 355 352 347 345 342 339 335 332 329 326 322 318 315 314 313
292 293 299 301 309 319 323 325 327 329 330 330 324 316 310 314 317 323 329 331 333 339 346 349 351 353 353 353 355 358 2 3 3 3 3 2 359 357 354 350 346 344 350 356 359 1 2 2 1 1 359 360 0 2 3 5 7 7 6 4 2 359 356 352 349 346 344 347 350 349 350 348 341 340 338 336 333 331 326 322 317 313 311 310 311
289 292 296 298 309 317 321 322 325 327 328 327 321 313 308 311 314 319 325 327 330 337 344 347 349 351 351 352 353 354 356 359 359 358 359 359 357 356 355 352 348 346 350 354 356 357 359 1 1 0 358 357 357 358 358 0 2 4 4 1 360 356 352 348 346 344 342 344 346 344 345 342 338 337 335 332 329 325 321 316 312 309 307 308 308
287 290 291 297 307 313 318 319 323 325 325 324 316 309 306 308 312 317 322 324 329 336 342 345 348 349 350 350 351 351 351 353 354 354 353 354 354 353 353 352 350 348 350 352 353 353 354 358 1 359 357 356 355 354 354 355 356 358 360 359 357 354 349 345 343 340 340 341 341 341 340 336 333 331 329 327 323 319 315 311 307 305 304 304 305
285 288 289 297 303 308 314 316 320 321 323 321 312 306 304 307 311 316 320 323 328 335 340 344 347 348 349 348 349 349 347 348 349 348 348 348 349 350 350 349 349 350 350 350 350 349 349 354 358 358 356 354 354 353 351 351 351 353 354 355 354 352 349 343 341 338 338 339 339 338 335 331 330 327 324 322 318 314 310 306 303 302 302 301 302
284 285 288 295 297 303 309 313 317 318 321 318 310 305 304 307 310 315 318 321 329 334 338 343 346 346 347 347 348 347 344 344 344 343 343 343 344 345 347 346 347 347 347 347 348 346 345 348 352 354 354 352 352 352 350 348 348 349 350 351 352 351 348 343 341 338 338 339 339 337 333 332 329 326 323 319 314 309 305 302 301 300 301 301 301
286 285 288 292 294 300 304 309 314 315 317 314 307 303 303 306 309 313 316 322 330 334 338 342 344 345 344 345 346 344 342 341 340 339 339 339 340 341 343 345 345 344 343 345 346 344 342 343 347 350 352 352 351 351 349 347 345 344 346 347 348 348 347 344 342 339 338 339 337 334 333 332 331 328 326 324 321 316 312 309 307 306 305 305 304
286 286 288 291 292 296 299 304 308 311 313 310 302 299 302 303 309 312 315 323 330 334 338 342 343 343 342 342 343 341 339 338 336 336 335 335 335 337 340 343 343 342 341 343 344 344 343 342 345 348 351 353 352 352 348 345 343 340 341 344 346 346 344 343 342 338 337 337 333 331 332 332 332 332 331 330 330 329 326 323 319 315 313 310 307
282 285 287 288 289 291 294 299 302 306 308 305 297 295 297 302 308 310 315 323 330 335 337 340 340 340 340 339 338 337 335 333 333 332 331 330 331 333 336 339 339 339 339 342 345 346 347 345 347 350 353 356 356 354 351 345 342 340 338 340 345 347 345 343 341 340 339 337 333 331 332 332 332 333 333 333 334 334 333 331 327 323 318 313 309
281 284 284 284 285 287 290 293 296 301 304 300 293 291 294 301 307 307 315 323 330 335 336 336 336 337 336 335 333 332 332 330 329 328 327 326 327 329 332 335 334 335 338 343 348 351 352 351 353 357 360 1 0 356 352 348 341 340 338 338 341 344 346 345 343 343 344 343 339 337 335 334 333 333 332 332 332 333 332 331 329 325 321 317 312
281 281 279 280 282 284 285 287 290 296 300 297 289 290 294 300 304 306 315 324 330 332 332 332 332 334 331 330 329 328 328 327 326 325 324 324 325 325 328 332 332 332 338 346 352 357 358 358 360 3 5 3 1 358 354 351 345 341 341 341 339 339 342 345 346 346 347 346 343 341 339 338 336 335 333 332 331 330 330 328 328 327 324 320 316
278 277 277 278 279 279 280 282 285 290 295 292 286 288 290 297 300 305 316 323 327 328 327 328 330 329 327 327 326 327 326 324 323 323 324 323 323 324 326 330 332 335 340 349 357 1 2 3 5 6 8 6 4 1 359 357 353 348 344 343 341 339 339 340 342 344 347 346 342 341 341 340 340 339 337 336 334 331 329 326 325 326 325 322 319
276 276 276 277 276 274 274 276 279 284 288 284 279 281 284 293 298 304 315 320 321 322 323 325 327 324 323 325 324 325 324 323 322 323 324 323 323 324 326 328 335 341 343 350 358 4 6 6 8 10 12 12 10 7 4 2 359 355 348 345 343 342 341 339 339 340 342 344 341 339 340 340 341 341 340 339 336 333 329 326 323 322 323 322 320
280 279 278 276 272 269 268 269 273 277 278 272 269 273 279 290 296 302 310 315 315 317 320 321 321 320 321 322 323 324 323 323 322 323 324 323 324 323 324 328 336 344 346 350 356 2 7 8 8 9 11 13 14 12 10 7 3 359 353 349 346 344 344 342 342 340 338 340 336 334 336 336 336 336 335 335 333 331 328 326 323 319 317 317 317
282 280 278 275 271 267 264 264 266 268 267 260 260 267 277 287 291 297 304 308 310 311 314 316 316 317 320 321 323 324 323 322 322 323 323 324 323 321 323 328 335 340 346 352 355 359 3 6 6 6 7 7 9 11 11 10 8 4 358 354 351 348 345 342 344 341 341 341 332 330 331 329 330 329 329 329 328 327 326 324 323 321 317 313 310
284 280 276 273 271 267 262 260 259 259 257 252 254 262 272 281 284 289 297 302 305 306 307 310 313 316 319 321 323 325 325 325 325 324 323 323 320 320 324 329 333 334 339 349 355 359 0 2 3 3 2 2 3 3 4 6 8 6 2 358 354 351 346 344 344 340 343 341 331 330 329 327 327 325 325 326 326 325 323 322 320 319 317 314 309
287 284 277 272 268 264 260 256 254 252 250 247 250 256 266 274 278 283 290 297 299 299 302 307 312 316 318 320 325 328 329 329 328 326 323 321 319 323 328 329 329 330 334 340 348 355 359 360 359 359 358 358 358 356 356 357 1 2 359 357 354 350 346 344 342 339 345 339 329 330 327 325 325 323 323 323 324 323 321 319 316 315 313 312 311
287 283 275 268 263 260 256 250 248 246 244 243 246 251 260 267 271 277 283 291 292 294 300 308 312 315 317 319 326 329 332 333 330 330 326 322 323 326 328 328 326 327 330 333 339 346 351 354 355 356 355 354 353 352 351 350 353 354 353 353 350 346 343 343 340 337 344 337 327 329 325 323 323 322 323 323 324 323 321 318 314 311 308 308 308
283 279 272 264 258 254 249 245 243 241 240 241 243 248 254 261 265 270 279 284 285 291 299 306 310 314 315 317 324 328 334 335 332 334 331 325 325 327 325 325 325 325 327 328 331 338 342 345 348 351 353 352 351 350 349 349 349 348 349 349 346 344 342 342 339 336 341 335 327 329 325 323 324 323 323 323 323 321 320 318 315 310 304 303 303
280 277 270 260 254 249 243 239 239 237 237 239 239 245 251 256 260 266 275 280 282 289 299 305 309 313 314 314 318 324 334 336 334 336 332 327 325 326 324 322 324 323 324 324 327 333 336 340 344 350 354 354 353 351 350 350 349 348 347 347 345 344 342 341 340 337 342 336 328 330 326 324 324 323 323 323 322 320 319 318 316 312 303 298 299
276 272 266 260 254 248 241 236 235 234 235 237 238 243 249 254 257 264 271 276 280 287 297 302 308 312 312 313 316 320 336 341 338 337 331 329 327 326 323 322 322 321 321 322 324 329 332 337 344 349 354 354 355 354 353 352 352 352 349 348 346 344 342 339 339 337 341 339 332 333 331 328 327 326 328 327 325 322 319 316 314 313 304 295 295
269 267 262 258 254 247 242 236 234 233 234 236 239 242 247 252 255 260 268 273 276 284 293 300 307 311 312 313 315 324 337 341 338 335 331 330 327 326 323 319 321 319 319 320 323 327 330 336 342 347 351 352 354 355 355 355 353 353 351 350 348 344 340 338 337 334 337 339 333 334 334 332 331 331 332 331 328 325 322 316 311 313 308 297 295
264 262 257 253 249 245 242 237 235 234 234 237 240 243 246 250 253 258 266 268 269 278 287 298 307 311 314 311 315 331 332 332 334 331 331 329 324 327 322 313 316 316 315 320 323 326 330 335 338 342 345 346 349 350 352 354 352 352 351 349 348 346 341 338 336 333 334 337 333 332 332 330 329 329 330 330 328 328 327 321 313 312 309 300 298
262 258 253 247 244 243 241 239 237 236 236 238 241 243 246 249 253 257 262 264 265 273 283 295 307 311 313 309 318 331 324 326 333 327 326 324 320 323 317 311 320 321 318 323 323 324 330 333 335 336 339 341 342 342 344 347 347 347 347 346 346 344 342 339 336 333 331 335 336 330 329 328 326 327 327 327 327 327 330 327 319 313 307 301 300
259 255 249 244 242 242 241 240 239 239 239 240 242 244 247 250 253 255 260 262 262 268 280 292 303 311 310 311 322 327 322 325 324 321 326 327 327 328 323 322 328 326 321 322 321 324 328 330 332 332 335 336 335 337 338 338 339 340 341 341 341 340 338 336 334 331 328 332 333 326 324 325 324 327 327 326 326 326 328 329 324 317 308 300 297
255 253 249 245 242 241 242 243 242 242 242 243 245 245 248 251 253 255 257 257 257 262 274 284 295 307 312 317 321 322 326 326 321 326 334 333 331 330 325 322 323 321 320 323 325 327 328 330 332 330 331 333 332 332 332 333 334 333 333 335 336 336 334 331 330 329 327 329 328 322 322 323 324 326 326 325 325 325 325 326 325 320 314 309 305
253 252 249 247 245 244 244 245 245 245 245 246 247 248 250 252 254 255 255 254 254 256 264 273 284 298 312 319 317 319 324 325 327 334 334 333 332 332 328 325 327 327 328 331 332 331 332 333 333 330 329 331 329 327 327 329 329 326 326 328 329 329 330 329 328 327 327 330 328 326 327 326 326 324 322 323 323 323 324 323 322 319 320 322 321
251 250 249 249 247 246 246 247 248 248 248 249 251 252 252 254 256 255 254 255 254 254 258 264 273 284 298 308 312 317 321 321 325 329 328 327 330 335 335 333 334 336 337 338 337 336 336 334 331 330 330 330 328 327 327 326 324 322 322 324 324 324 325 325 324 324 326 328 328 328 329 328 327 325 324 324 323 322 322 322 319 318 320 323 326
247 248 249 248 248 248 248 249 250 251 252 254 256 255 254 256 257 255 255 256 254 253 256 260 265 268 276 290 303 316 325 327 327 324 322 322 327 334 336 334 336 337 336 337 336 335 335 333 330 330 331 331 328 327 327 325 323 323 321 321 321 322 322 321 322 323 323 324 325 327 326 325 327 327 327 325 323 322 322 322 319 317 318 318 320
243 247 248 247 248 249 249 251 252 254 257 259 256 254 254 256 255 254 254 256 256 255 256 259 258 255 262 275 288 310 323 328 326 320 319 323 327 330 332 331 332 331 331 333 333 332 333 333 331 330 332 333 330 328 327 326 326 325 323 323 323 322 320 319 320 321 320 320 322 322 322 323 325 325 326 326 325 324 323 322 319 317 316 317 316
244 246 247 247 249 250 253 256 257 259 263 262 256 253 253 254 253 252 252 255 257 258 258 256 253 250 255 265 275 295 308 313 315 314 317 322 324 325 327 326 326 327 328 331 330 328 330 331 329 329 331 333 331 330 329 330 331 327 323 326 326 322 320 319 320 318 317 318 318 319 320 322 322 322 325 326 324 323 322 321 319 317 316 316 316
251 250 250 251 252 253 256 260 265 269 270 267 261 256 254 253 253 252 253 255 255 257 258 254 253 249 246 255 268 279 288 297 303 309 314 317 320 322 322 320 320 321 323 325 325 324 324 325 325 326 328 328 328 329 331 332 331 325 323 326 325 322 321 320 319 317 317 318 318 317 318 320 321 320 322 324 323 321 321 320 319 317 316 316 316
260 257 257 257 256 256 256 260 268 275 274 271 266 259 255 251 249 250 252 252 252 255 255 252 249 242 240 253 271 278 285 292 297 302 305 309 313 315 314 313 315 317 318 319 319 319 319 319 320 322 322 323 324 326 328 329 327 325 325 325 324 323 322 320 318 317 318 318 316 314 315 319 319 317 317 320 321 321 320 320 319 318 317 316 315
262 259 257 257 257 256 257 261 267 271 270 268 266 264 259 252 248 250 252 253 254 252 246 240 236 237 255 280 285 286 288 289 292 294 298 302 304 305 306 307 310 311 312 312 312 313 314 315 315 316 318 318 319 320 322 323 322 323 323 323 324 324 321 320 319 319 319 317 316 315 315 317 317 317 318 318 319 320 321 320 319 319 318 317 315
260 262 260 258 256 256 258 261 264 266 265 265 263 261 258 252 250 249 249 254 254 242 231 227 230 254 283 292 292 289 286 286 290 292 295 296 297 298 300 303 305 306 306 307 307 309 309 310 311 311 312 313 314 314 315 316 317 318 319 320 322 322 319 318 319 320 320 319 317 315 317 316 314 316 318 317 318 318 320 321 319 318 318 318 315
264 267 267 263 258 256 258 261 263 265 265 264 260 256 253 250 248 245 246 248 244 232 229 238 257 283 291 292 293 291 288 288 290 291 293 293 294 295 298 301 302 303 304 305 306 307 307 307 309 309 309 309 308 309 310 311 313 314 315 316 316 316 314 315 317 318 320 319 316 314 316 315 313 314 315 316 317 318 319 320 318 317 316 317 316
269 270 270 268 263 261 261 261 264 266 265 263 258 255 251 246 244 244 244 242 236 231 241 261 279 290 291 291 291 289 290 290 290 291 292 293 295 296 298 300 301 303 303 304 306 306 307 307 308 309 308 307 306 306 307 308 309 310 310 310 309 309 310 312 313 314 316 315 314 314 314 314 312 312 313 314 314 316 317 318 317 316 314 315 316
269 272 272 272 270 267 264 262 264 267 265 261 256 253 248 242 241 238 233 233 236 241 252 270 282 286 287 288 288 290 290 291 291 293 294 295 297 298 300 300 301 303 303 304 305 305 306 307 307 307 307 307 307 307 307 307 308 308 307 306 305 304 305 308 308 309 311 310 311 312 312 311 310 310 311 311 311 312 314 314 314 314 313 313 314
265 269 274 275 272 269 267 263 263 264 262 260 255 251 247 238 234 230 223 230 246 258 264 273 280 283 286 287 288 291 291 293 294 295 296 297 298 299 300 301 302 303 304 304 305 305 305 306 306 307 306 307 307 307 308 308 308 307 306 304 304 303 302 302 302 304 306 307 308 308 308 307 308 309 309 309 309 309 309 310 310 311 310 311 313
262 265 271 272 270 268 268 264 259 256 256 257 252 246 238 227 225 225 222 234 255 270 275 277 281 285 287 289 291 292 293 294 294 294 296 298 300 302 302 303 303 304 305 305 305 306 306 306 307 307 307 307 307 307 307 306 306 306 305 304 303 303 302 301 300 300 300 301 302 303 304 305 307 307 306 308 308 307 307 307 306 306 306 307 309
261 263 268 270 271 269 269 265 256 251 249 250 248 242 234 225 227 230 229 251 280 285 284 284 285 287 288 290 291 292 293 292 293 294 297 299 302 304 304 304 305 305 306 306 307 308 308 308 308 307 308 308 308 308 307 307 306 306 306 305 305 304 303 302 300 299 297 297 297 298 300 302 304 305 305 307 307 306 306 306 304 303 303 303 303
258 261 266 269 271 271 269 264 256 251 246 245 246 246 243 238 239 238 249 283 297 291 289 287 286 288 289 291 291 292 293 292 294 296 298 301 302 303 304 305 306 306 307 307 308 308 309 308 308 308 308 308 309 309 309 308 308 307 307 306 305 305 304 303 301 299 297 296 295 296 297 298 299 301 302 304 305 304 304 305 305 303 301 301 300
256 259 266 269 268 269 265 258 256 253 246 244 247 247 241 243 256 270 285 295 292 286 287 287 288 290 290 291 293 293 295 295 297 299 300 302 303 304 305 305 306 307 307 308 308 308 308 308 307 308 308 308 308 309 309 309 308 308 308 307 306 305 305 303 302 300 298 296 295 294 293 294 295 296 296 298 299 300 301 303 303 302 302 300 299
259 261 267 268 261 256 256 261 265 258 253 257 260 254 250 265 281 289 293 290 284 283 286 287 288 290 290 292 293 294 295 297 298 299 301 303 304 306 306 307 307 308 308 308 308 308 308 307 307 307 307 307 307 308 309 309 309 309 308 308 308 307 307 305 304 302 299 295 294 293 292 291 291 291 292 293 294 295 297 298 299 300 300 300 297
262 263 263 255 247 251 261 268 268 264 264 268 267 265 270 283 293 293 292 287 284 285 285 286 288 289 291 292 293 295 296 297 298 299 301 303 305 306 307 308 308 309 309 309 309 309 308 308 307 306 306 306 307 309 309 310 310 310 309 309 308 308 307 306 305 304 301 298 294 293 292 290 290 289 289 290 290 292 292 293 294 295 296 297 297
262 258 250 243 254 269 271 268 266 269 271 268 266 273 282 290 294 292 291 287 285 286 286 287 288 290 292 293 294 296 296 298 299 300 302 304 305 307 307 308 308 308 309 309 309 309 309 308 306 305 305 305 307 308 309 309 309 309 309 309 308 308 307 306 305 304 303 301 298 294 291 290 290 290 289 288 288 288 288 289 290 291 292 292 292
259 248 241 247 264 273 269 262 264 273 274 269 270 280 287 289 289 287 286 285 284 286 287 288 290 291 292 293 294 295 296 298 298 300 302 304 306 307 308 308 308 309 309 309 309 309 308 307 306 305 304 305 307 308 308 308 307 308 308 307 307 307 306 306 305 304 303 302 301 299 295 291 288 288 288 288 288 288 287 287 287 287 287 287 288
253 242 242 252 263 265 262 260 263 270 272 271 276 285 289 288 286 283 281 282 283 284 286 288 289 289 289 290 291 293 295 297 298 301 303 304 306 307 308 309 308 308 308 308 308 308 307 306 306 305 305 305 306 307 307 307 307 307 306 306 305 305 304 303 303 302 301 301 300 300 298 295 292 289 287 286 287 287 287 286 285 284 284 285 285
Height
5887 5886 5885 5885 5884 5884 5884 5883 5882 5881 5881 5880 5879 5878 5877 5876 5876 5875 5875 5874 5873 5871 5870 5869 5868 5867 5866 5865 5864 5862 5861 5860 5859 5858 5857 5857 5856 5856 5855 5854 5853 5852 5851 5850 5849 5848 5847 5846 5845 5844 5844 5843 5842 5842 5841 5841 5841 5840 5840 5839 5839 5839 5839 5839 5838 5838 5837 5837 5836 5836 5836 5836 5836 5836 5837 5837 5837 5837 5837 5837 5837 5836 5836 5836 5836
5886 5885 5884 5884 5884 5883 5883 5883 5882 5881 5880 5879 5879 5878 5877 5876 5875 5875 5874 5874 5873 5871 5870 5869 5868 5867 5866 5865 5864 5862 5861 5860 5859 5859 5858 5857 5857 5856 5855 5854 5854 5853 5852 5851 5850 5849 5848 5847 5846 5845 5844 5843 5842 5842 5841 5841 5841 5840 5840 5839 5839 5839 5839 5839 5838 5838 5837 5837 5837 5837 5837 5837 5836 5836 5836 5836 5836 5836 5837 5837 5836 5836 5836 5836 5836
5885 5884 5883 5883 5883 5883 5882 5882 5881 5880 5879 5879 5878 5878 5877 5876 5875 5875 5874 5873 5872 5871 5871 5869 5868 5867 5866 5865 5864 5863 5861 5860 5859 5859 5858 5858 5857 5856 5855 5854 5854 5853 5852 5851 5850 5849 5848 5847 5846 5845 5844 5843 5843 5842 5841 5841 5841 5840 5840 5839 5839 5839 5839 5839 5839 5838 5838 5837 5837 5837 5837 5837 5837 5836 5836 5836 5836 5836 5836 5836 5836 5836 5836 5836 5835
5884 5883 5883 5882 5882 5882 5881 5881 5880 5879 5879 5878 5877 5877 5876 5876 5875 5874 5874 5873 5872 5871 5871 5869 5869 5867 5866 5865 5864 5863 5861 5861 5860 5859 5858 5858 5857 5856 5855 5854 5853 5853 5852 5851 5850 5849 5848 5847 5846 5846 5845 5844 5843 5843 5842 5841 5841 5840 5840 5840 5839 5839 5839 5839 5839 5838 5838 5838 5837 5837 5837 5837 5837 5837 5836 5836 5836 5836 5836 5836 5836 5835 5835 5835 5835
5883 5882 5882 5881 5881 5881 5881 5880 5879 5879 5878 5877 5877 5877 5876 5875 5875 5874 5873 5873 5872 5871 5871 5870 5869 5868 5866 5865 5864 5863 5861 5861 5860 5859 5858 5857 5857 5856 5855 5854 5853 5853 5852 5851 5850 5849 5849 5848 5847 5846 5845 5844 5844 5843 5842 5842 5841 5841 5840 5840 5839 5839 5839 5839 5839 5838 5838 5838 5838 5837 5837 5837 5837 5837 5836 5836 5836 5836 5836 5835 5835 5835 5835 5834 5834
5881 5881 5881 5881 5881 5880 5880 5879 5879 5878 5877 5877 5876 5876 5876 5875 5874 5874 5873 5872 5872 5871 5871 5870 5869 5868 5866 5865 5864 5863 5861 5860 5860 5859 5858 5857 5856 5855 5855 5854 5853 5852 5852 5851 5850 5850 5849 5848 5847 5846 5845 5845 5844 5843 5843 5842 5841 5841 5840 5840 5839 5839 5839 5839 5838 5838 5838 5838 5838 5837 5837 5837 5837 5836 5836 5836 5835 5835 5835 5835 5834 5834 5834 5834 5833
5880 5879 5880 5880 5880 5879 5879 5879 5878 5878 5877 5876 5876 5876 5875 5875 5874 5873 5873 5872 5871 5871 5870 5870 5869 5867 5866 5865 5863 5862 5861 5860 5859 5858 5858 5857 5856 5855 5854 5854 5853 5852 5852 5851 5850 5850 5849 5848 5847 5846 5845 5845 5844 5843 5843 5842 5842 5841 5840 5840 5839 5839 5839 5839 5838 5838 5838 5838 5838 5837 5837 5837 5836 5836 5836 5835 5835 5834 5834 5834 5834 5833 5833 5833 5832
5879 5878 5878 5879 5879 5879 5878 5878 5878 5877 5876 5876 5875 5875 5875 5874 5874 5873 5872 5871 5871 5871 5870 5869 5868 5867 5866 5864 5863 5862 5861 5860 5859 5858 5857 5856 5856 5855 5854 5853 5853 5852 5852 5851 5850 5849 5849 5848 5847 5846 5845 5844 5844 5843 5842 5842 5841 5841 5840 5840 5839 5839 5839 5838 5838 5838 5838 5838 5838 5837 5837 5837 5836 5836 5835 5834 5834 5834 5833 5833 5833 5832 5832 5832 5832
5878 5877 5877 5877 5877 5878 5877 5877 5877 5876 5876 5875 5875 5875 5874 5874 5873 5872 5872 5871 5871 5871 5870 5869 5868 5867 5865 5864 5863 5862 5861 5860 5859 5858 5857 5856 5855 5854 5854 5853 5853 5852 5852 5851 5850 5849 5848 5847 5847 5846 5845 5844 5843 5843 5842 5842 5841 5841 5840 5840 5839 5839 5838 5838 5838 5838 5838 5837 5837 5837 5837 5836 5836 5835 5834 5834 5834 5833 5833 5832 5832 5832 5831 5831 5831
5876 5875 5875 5876 5876 5876 5876 5876 5876 5876 5875 5875 5875 5874 5874 5873 5873 5872 5871 5871 5870 5870 5870 5869 5868 5866 5865 5863 5862 5861 5860 5859 5858 5857 5856 5855 5854 5854 5853 5853 5852 5852 5851 5851 5850 5849 5848 5847 5846 5845 5844 5844 5843 5843 5842 5841 5841 5840 5840 5839 5839 5838 5838 5838 5837 5837 5837 5837 5837 5836 5836 5836 5835 5835 5834 5834 5833 5833 5832 5832 5831 5831 5831 5830 5830
5874 5874 5874 5875 5875 5875 5875 5875 5875 5875 5874 5874 5874 5874 5873 5873 5872 5871 5871 5870 5870 5870 5869 5868 5867 5865 5864 5863 5862 5861 5860 5859 5858 5857 5856 5855 5854 5853 5852 5852 5852 5851 5851 5850 5849 5848 5847 5846 5845 5845 5844 5843 5843 5842 5842 5841 5840 5840 5839 5839 5838 5838 5838 5837 5837 5837 5836 5836 5836 5836 5835 5835 5835 5834 5834 5833 5833 5832 5832 5831 5831 5830 5830 5829 5829
5873 5873 5873 5873 5874 5874 5874 5874 5874 5874 5873 5873 5873 5873 5873 5872 5872 5871 5870 5869 5870 5869 5869 5867 5866 5865 5863 5862 5861 5860 5859 5858 5857 5856 5855 5854 5853 5852 5852 5851 5851 5850 5850 5849 5848 5848 5847 5846 5845 5844 5843 5843 5842 5842 5841 5841 5840 5839 5839 5838 5838 5838 5837 5837 5837 5836 5836 5836 5836 5835 5835 5835 5834 5834 5833 5833 5832 5832 5831 5831 5830 5830 5829 5829 5828
5872 5872 5872 5872 5873 5873 5873 5873 5873 5873 5873 5872 5872 5872 5872 5871 5871 5870 5869 5869 5869 5869 5868 5867 5865 5864 5863 5862 5861 5860 5859 5858 5857 5855 5854 5853 5852 5852 5851 5851 5850 5850 5849 5849 5848 5847 5846 5845 5845 5844 5843 5842 5842 5841 5841 5840 5840 5839 5839 5838 5838 5837 5837 5837 5836 5836 5836 5836 5835 5835 5835 5834 5834 5833 5833 5832 5832 5831 5831 5830 5829 5829 5828 5828 5827
5871 5871 5871 5871 5871 5872 5872 5872 5872 5872 5872 5871 5871 5871 5871 5870 5870 5869 5869 5868 5868 5868 5867 5866 5865 5864 5863 5861 5861 5859 5858 5857 5856 5855 5854 5852 5851 5851 5850 5850 5850 5849 5849 5848 5848 5847 5846 5845 5844 5844 5843 5842 5842 5841 5840 5840 5839 5839 5838 5838 5837 5837 5837 5837 5836 5836 5836 5835 5835 5835 5834 5834 5834 5833 5832 5832 5831 5830 5830 5829 5829 5828 5827 5827 5826
5870 5869 5869 5870 5870 5870 5870 5870 5870 5871 5871 5871 5870 5870 5870 5870 5869 5868 5868 5868 5868 5867 5866 5865 5864 5863 5862 5861 5860 5859 5857 5856 5855 5854 5853 5852 5850 5850 5850 5850 5849 5848 5848 5848 5847 5847 5846 5845 5844 5843 5843 5842 5841 5841 5840 5840 5839 5839 5838 5838 5837 5837 5836 5836 5836 5836 5835 5835 5835 5834 5834 5834 5833 5833 5832 5831 5831 5830 5829 5828 5828 5827 5827 5826 5825
5868 5868 5868 5868 5869 5869 5869 5869 5869 5869 5870 5870 5870 5869 5869 5869 5868 5868 5867 5867 5867 5866 5865 5864 5864 5862 5861 5860 5859 5857 5856 5855 5855 5854 5852 5851 5850 5849 5849 5849 5849 5848 5848 5847 5847 5847 5846 5845 5844 5844 5843 5842 5841 5840 5840 5839 5839 5839 5838 5838 5837 5837 5836 5836 5836 5835 5835 5835 5834 5834 5834 5833 5833 5832 5831 5830 5830 5829 5828 5828 5827 5827 5826 5825 5824
5867 5867 5867 5867 5867 5867 5867 5867 5868 5868 5869 5869 5869 5869 5868 5868 5867 5867 5867 5866 5866 5866 5865 5864 5863 5862 5861 5859 5858 5857 5855 5854 5854 5853 5852 5851 5850 5849 5848 5848 5848 5849 5848 5847 5847 5847 5846 5845 5845 5844 5843 5842 5841 5841 5840 5839 5839 5838 5838 5838 5837 5837 5836 5836 5835 5835 5835 5834 5834 5833 5833 5832 5832 5831 5831 5830 5829 5828 5828 5827 5826 5826 5825 5824 5824
5866 5866 5865 5865 5865 5865 5865 5866 5866 5867 5868 5868 5868 5868 5867 5867 5867 5866 5866 5866 5865 5865 5864 5863 5862 5861 5860 5859 5857 5856 5855 5854 5853 5852 5851 5851 5850 5849 5848 5848 5848 5848 5848 5848 5847 5846 5846 5846 5845 5844 5843 5842 5841 5841 5840 5839 5839 5838 5838 5837 5837 5836 5836 5835 5835 5834 5834 5834 5833 5832 5832 5831 5831 5830 5830 5829 5828 5828 5827 5826 5825 5825 5824 5823 5822
5864 5864 5864 5863 5863 5863 5864 5864 5865 5866 5866 5867 5867 5867 5867 5866 5866 5865 5865 5865 5865 5864 5863 5863 5861 5860 5859 5858 5857 5856 5855 5853 5852 5851 5851 5850 5849 5849 5848 5848 5848 5848 5848 5848 5848 5847 5846 5845 5845 5844 5843 5842 5841 5841 5840 5839 5839 5838 5837 5837 5836 5836 5835 5835 5834 5834 5834 5833 5832 5832 5831 5830 5830 5829 5829 5828 5827 5826 5825 5825 5824 5823 5823 5822 5821
5863 5863 5862 5862 5862 5862 5862 5863 5864 5864 5865 5865 5866 5866 5866 5865 5865 5865 5865 5864 5864 5863 5862 5862 5861 5860 5859 5858 5857 5856 5854 5853 5852 5851 5850 5850 5849 5849 5848 5848 5847 5847 5847 5848 5848 5848 5847 5846 5845 5844 5843 5842 5841 5840 5840 5839 5839 5838 5837 5837 5836 5835 5835 5834 5834 5833 5833 5832 5831 5831 5830 5829 5829 5828 5827 5827 5826 5825 5824 5823 5822 5822 5821 5820 5820
5861 5861 5860 5860 5860 5861 5861 5862 5862 5863 5863 5864 5865 5865 5865 5864 5864 5864 5864 5864 5863 5862 5862 5861 5860 5859 5858 5857 5856 5855 5854 5853 5852 5851 5850 5850 5849 5849 5848 5848 5848 5847 5847 5847 5847 5847 5847 5846 5845 5844 5842 5841 5841 5840 5839 5839 5838 5838 5837 5836 5836 5835 5834 5834 5833 5832 5833 5832 5830 5830 5829 5829 5828 5827 5826 5826 5825 5824 5823 5822 5821 5820 5819 5819 5818
5860 5859 5859 5858 5859 5859 5860 5861 5861 5862 5862 5863 5863 5863 5863 5863 5863 5863 5863 5863 5862 5862 5861 5860 5859 5858 5857 5856 5856 5854 5853 5852 5851 5851 5851 5850 5849 5849 5849 5848 5848 5847 5847 5846 5846 5846 5846 5846 5845 5844 5843 5842 5840 5840 5839 5838 5838 5837 5837 5836 5835 5834 5834 5833 5832 5832 5832 5831 5829 5829 5828 5827 5827 5826 5825 5824 5823 5822 5821 5820 5819 5818 5818 5817 5816
5858 5858 5857 5857 5857 5858 5859 5859 5860 5861 5861 5861 5862 5862 5862 5862 5862 5862 5862 5862 5862 5861 5860 5859 5858 5857 5856 5856 5855 5854 5853 5852 5851 5851 5851 5850 5850 5849 5849 5849 5848 5847 5847 5846 5845 5845 5844 5844 5844 5844 5843 5842 5841 5840 5839 5838 5837 5836 5836 5835 5834 5834 5833 5832 5831 5831 5831 5830 5828 5828 5827 5826 5825 5825 5824 5823 5822 5821 5820 5819 5817 5817 5816 5815 5815
5856 5856 5856 5856 5856 5857 5857 5858 5858 5859 5859 5859 5860 5860 5860 5861 5861 5862 5861 5861 5861 5861 5859 5858 5857 5856 5856 5855 5854 5853 5853 5852 5852 5851 5851 5851 5850 5850 5849 5849 5848 5848 5847 5846 5845 5844 5844 5843 5843 5842 5841 5841 5840 5840 5839 5838 5837 5836 5835 5835 5834 5833 5832 5831 5830 5829 5829 5829 5827 5827 5826 5825 5824 5823 5823 5822 5821 5819 5818 5817 5816 5815 5814 5813 5813
5854 5854 5854 5854 5854 5855 5856 5856 5857 5857 5858 5858 5858 5858 5859 5860 5860 5861 5861 5861 5860 5860 5859 5857 5856 5855 5855 5854 5853 5853 5853 5852 5851 5851 5851 5851 5851 5850 5849 5849 5848 5848 5847 5846 5845 5844 5843 5842 5841 5841 5840 5840 5839 5839 5838 5837 5836 5835 5835 5834 5833 5832 5831 5830 5829 5828 5828 5828 5826 5826 5825 5824 5823 5822 5821 5820 5819 5818 5816 5815 5814 5813 5812 5812 5811
5852 5852 5852 5853 5853 5853 5854 5854 5855 5855 5856 5856 5856 5857 5858 5859 5859 5860 5860 5860 5860 5859 5858 5857 5856 5855 5854 5853 5852 5852 5852 5851 5851 5851 5851 5851 5851 5850 5850 5849 5849 5848 5847 5846 5845 5844 5842 5841 5840 5839 5839 5838 5838 5837 5837 5836 5836 5835 5834 5833 5832 5832 5831 5829 5828 5827 5826 5826 5825 5825 5824 5823 5822 5821 5820 5819 5818 5816 5815 5813 5812 5811 5810 5810 5810
5849 5850 5850 5851 5851 5851 5852 5852 5853 5854 5854 5854 5855 5855 5857 5857 5858 5859 5859 5859 5859 5858 5857 5856 5856 5854 5853 5852 5852 5852 5852 5851 5851 5850 5850 5850 5850 5850 5850 5849 5848 5847 5846 5845 5844 5843 5842 5841 5839 5838 5837 5837 5836 5836 5835 5835 5835 5835 5834 5833 5832 5831 5830 5828 5827 5826 5825 5825 5825 5823 5823 5822 5821 5820 5819 5817 5816 5815 5813 5812 5811 5810 5809 5809 5808
5847 5848 5849 5849 5849 5849 5850 5850 5851 5851 5852 5852 5853 5854 5855 5856 5857 5857 5858 5858 5858 5857 5857 5856 5855 5854 5853 5851 5851 5851 5851 5851 5851 5850 5850 5850 5849 5848 5849 5848 5847 5846 5845 5844 5843 5842 5841 5840 5839 5838 5837 5836 5835 5834 5834 5834 5833 5833 5832 5832 5831 5830 5829 5827 5826 5825 5824 5824 5824 5822 5821 5820 5820 5819 5818 5816 5815 5814 5812 5811 5810 5809 5808 5807 5806
5845 5846 5846 5847 5847 5848 5848 5849 5849 5849 5850 5851 5851 5853 5854 5855 5856 5856 5857 5856 5856 5856 5856 5856 5855 5854 5853 5851 5850 5849 5850 5849 5849 5849 5849 5849 5848 5848 5848 5847 5846 5845 5844 5843 5842 5841 5840 5839 5839 5837 5836 5835 5834 5833 5833 5832 5832 5831 5830 5830 5829 5828 5827 5826 5825 5824 5823 5823 5822 5821 5820 5819 5818 5817 5816 5815 5814 5813 5811 5810 5809 5808 5807 5805 5804
5842 5843 5844 5845 5845 5846 5847 5847 5847 5847 5848 5848 5850 5852 5853 5854 5854 5855 5855 5855 5856 5856 5856 5855 5855 5855 5853 5851 5850 5849 5848 5847 5847 5847 5847 5847 5847 5847 5847 5846 5845 5844 5843 5842 5841 5840 5839 5839 5839 5838 5837 5837 5836 5834 5833 5832 5832 5831 5829 5828 5828 5826 5826 5825 5824 5823 5822 5822 5821 5820 5819 5818 5817 5815 5814 5813 5812 5812 5810 5809 5808 5807 5806 5804 5803
5840 5841 5842 5843 5844 5844 5845 5845 5844 5844 5845 5847 5849 5851 5852 5852 5853 5854 5854 5855 5855 5855 5854 5854 5854 5854 5853 5852 5850 5849 5848 5847 5846 5846 5846 5845 5845 5844 5844 5843 5843 5842 5842 5841 5840 5839 5839 5838 5838 5837 5837 5837 5836 5835 5834 5833 5832 5831 5830 5828 5827 5825 5824 5823 5822 5821 5820 5820 5820 5818 5817 5816 5815 5814 5813 5812 5811 5810 5810 5809 5807 5806 5805 5803 5802
5838 5839 5840 5841 5841 5842 5842 5842 5842 5842 5843 5846 5849 5850 5851 5851 5851 5852 5853 5853 5854 5854 5853 5853 5854 5853 5852 5852 5851 5849 5848 5847 5846 5846 5845 5844 5844 5843 5843 5842 5842 5842 5841 5841 5840 5838 5838 5837 5836 5836 5835 5835 5835 5834 5833 5833 5832 5830 5830 5828 5827 5825 5824 5823 5821 5819 5818 5818 5818 5817 5815 5814 5814 5813 5812 5811 5809 5809 5808 5808 5806 5805 5804 5803 5801
5836 5837 5838 5838 5839 5840 5840 5840 5839 5840 5842 5847 5849 5849 5849 5849 5850 5851 5851 5852 5852 5852 5852 5852 5853 5852 5852 5852 5850 5849 5848 5847 5846 5846 5845 5844 5844 5843 5843 5842 5841 5841 5840 5840 5839 5838 5837 5836 5836 5835 5834 5833 5834 5833 5832 5832 5830 5829 5829 5827 5825 5824 5824 5822 5820 5818 5817 5816 5815 5815 5814 5813 5812 5811 5811 5809 5808 5807 5807 5806 5805 5804 5803 5802 5800
5835 5835 5835 5837 5838 5839 5839 5839 5838 5839 5843 5847 5847 5847 5848 5848 5849 5849 5850 5850 5850 5851 5851 5852 5851 5851 5851 5851 5849 5848 5847 5846 5846 5846 5845 5844 5843 5843 5843 5842 5841 5840 5839 5839 5839 5838 5837 5836 5836 5834 5833 5832 5832 5832 5831 5829 5828 5828 5827 5826 5824 5823 5822 5820 5818 5817 5815 5813 5813 5812 5812 5811 5810 5809 5808 5808 5806 5806 5805 5804 5804 5803 5801 5800 5799
5835 5835 5835 5836 5837 5839 5839 5838 5838 5840 5844 5846 5846 5846 5847 5846 5847 5848 5848 5848 5848 5849 5850 5850 5849 5850 5851 5849 5848 5846 5846 5846 5845 5845 5845 5843 5843 5842 5842 5841 5840 5840 5839 5838 5838 5837 5836 5835 5835 5833 5832 5831 5831 5830 5829 5828 5827 5826 5825 5824 5822 5821 5820 5818 5816 5815 5814 5813 5811 5810 5809 5809 5808 5806 5806 5806 5805 5804 5803 5802 5801 5800 5799 5798 5797
5835 5835 5836 5837 5837 5838 5837 5836 5837 5840 5843 5844 5843 5844 5844 5844 5845 5845 5846 5846 5846 5846 5847 5847 5848 5849 5849 5847 5846 5845 5845 5845 5845 5844 5844 5843 5842 5841 5840 5840 5839 5838 5838 5837 5836 5835 5834 5834 5833 5832 5831 5829 5828 5828 5827 5827 5825 5824 5823 5822 5821 5819 5818 5817 5815 5814 5813 5812 5811 5809 5807 5806 5806 5806 5805 5804 5803 5802 5801 5800 5799 5798 5797 5796 5795
5833 5833 5834 5835 5836 5836 5836 5836 5837 5839 5840 5840 5840 5841 5842 5843 5843 5843 5843 5843 5844 5844 5845 5846 5847 5847 5845 5843 5843 5844 5844 5844 5844 5843 5843 5842 5841 5840 5839 5839 5838 5837 5836 5836 5835 5834 5833 5831 5831 5830 5829 5828 5826 5826 5825 5825 5824 5823 5821 5820 5819 5817 5816 5815 5814 5813 5811 5811 5810 5808 5805 5804 5804 5804 5803 5802 5801 5800 5800 5799 5797 5796 5795 5794 5793
5830 5830 5831 5833 5834 5835 5835 5836 5837 5837 5837 5837 5837 5838 5839 5841 5841 5841 5841 5841 5842 5843 5845 5845 5844 5843 5840 5840 5841 5843 5843 5843 5843 5842 5842 5841 5840 5839 5838 5837 5837 5836 5835 5834 5834 5832 5831 5830 5829 5828 5827 5826 5825 5824 5823 5823 5822 5821 5819 5818 5816 5815 5814 5813 5812 5810 5809 5808 5807 5806 5804 5802 5802 5802 5801 5800 5798 5797 5797 5797 5795 5794 5794 5793 5792
5827 5828 5830 5831 5833 5834 5834 5835 5835 5835 5835 5834 5835 5835 5837 5838 5839 5839 5840 5840 5841 5843 5845 5842 5840 5839 5838 5839 5840 5841 5842 5842 5842 5841 5840 5839 5838 5838 5837 5836 5835 5834 5834 5833 5832 5831 5829 5828 5827 5826 5825 5824 5823 5822 5821 5820 5820 5819 5817 5816 5815 5813 5812 5812 5810 5808 5807 5806 5805 5804 5802 5801 5800 5799 5799 5798 5796 5794 5794 5794 5793 5793 5792 5791 5790
5827 5828 5829 5830 5831 5831 5832 5833 5833 5833 5833 5832 5833 5834 5835 5837 5838 5838 5838 5839 5840 5842 5841 5838 5837 5838 5838 5839 5839 5840 5840 5840 5840 5839 5839 5838 5837 5836 5835 5834 5833 5833 5832 5831 5830 5829 5827 5826 5825 5824 5822 5822 5821 5820 5819 5818 5817 5816 5815 5814 5813 5812 5811 5810 5808 5806 5805 5804 5803 5802 5800 5798 5797 5797 5796 5796 5795 5793 5791 5791 5791 5790 5789 5789 5788
5827 5828 5828 5829 5829 5829 5830 5831 5831 5831 5831 5831 5832 5833 5833 5834 5835 5836 5836 5837 5839 5839 5837 5836 5837 5837 5838 5838 5839 5839 5839 5839 5839 5838 5837 5836 5835 5834 5834 5833 5832 5831 5830 5829 5828 5827 5826 5825 5823 5822 5820 5819 5818 5817 5816 5815 5814 5814 5813 5811 5810 5809 5809 5808 5806 5804 5803 5802 5801 5799 5798 5797 5795 5794 5793 5793 5793 5792 5790 5789 5788 5787 5787 5787 5786
5825 5826 5827 5827 5827 5828 5829 5830 5830 5830 5829 5829 5829 5831 5831 5832 5832 5832 5833 5835 5837 5836 5835 5836 5837 5837 5837 5838 5838 5838 5838 5837 5837 5836 5835 5834 5834 5833 5832 5831 5830 5829 5828 5827 5826 5825 5824 5823 5822 5820 5819 5817 5816 5815 5814 5812 5811 5810 5810 5808 5807 5806 5806 5805 5804 5802 5801 5799 5798 5797 5796 5795 5794 5791 5790 5789 5789 5789 5789 5787 5786 5785 5784 5784 5784
5823 5824 5825 5825 5825 5826 5827 5828 5828 5827 5827 5827 5828 5829 5830 5831 5831 5830 5831 5833 5835 5835 5835 5836 5837 5837 5837 5837 5837 5837 5836 5836 5835 5835 5834 5833 5832 5831 5829 5829 5828 5827 5826 5825 5824 5823 5822 5821 5820 5818 5816 5815 5813 5812 5811 5810 5809 5807 5806 5805 5804 5803 5802 5802 5801 5799 5798 5797 5796 5795 5794 5792 5791 5789 5787 5787 5786 5786 5786 5785 5783 5783 5782 5782 5781
5821 5822 5822 5823 5824 5824 5824 5825 5825 5825 5825 5826 5827 5828 5829 5829 5829 5830 5831 5833 5833 5834 5834 5835 5836 5836 5836 5835 5835 5835 5834 5834 5833 5833 5832 5831 5830 5829 5827 5826 5825 5824 5823 5822 5821 5820 5819 5818 5817 5816 5814 5812 5810 5809 5807 5806 5806 5804 5803 5802 5801 5800 5799 5798 5798 5796 5795 5794 5793 5792 5791 5790 5788 5786 5784 5784 5783 5782 5782 5781 5781 5780 5779 5778 5778
5819 5820 5820 5822 5823 5823 5823 5823 5823 5824 5825 5825 5826 5827 5827 5827 5827 5829 5830 5830 5831 5832 5833 5833 5834 5834 5834 5834 5834 5833 5832 5832 5831 5831 5830 5829 5828 5827 5825 5824 5823 5822 5821 5820 5819 5818 5817 5815 5814 5813 5811 5810 5808 5806 5804 5803 5802 5801 5800 5799 5798 5797 5795 5794 5794 5794 5792 5790 5789 5788 5787 5786 5785 5784 5781 5780 5779 5778 5778 5777 5777 5776 5776 5775 5774
5817 5818 5819 5820 5822 5822 5822 5822 5823 5824 5825 5824 5824 5825 5825 5826 5827 5828 5828 5828 5829 5830 5831 5831 5832 5832 5832 5831 5831 5830 5830 5829 5829 5828 5827 5826 5825 5824 5823 5822 5821 5820 5819 5818 5817 5816 5814 5813 5812 5810 5809 5807 5805 5803 5801 5800 5798 5797 5796 5795 5793 5793 5792 5791 5791 5791 5790 5787 5785 5784 5784 5783 5782 5781 5779 5778 5777 5775 5774 5774 5773 5773 5773 5773 5772
5815 5817 5818 5819 5820 5821 5822 5822 5823 5823 5824 5824 5824 5824 5824 5825 5826 5827 5827 5826 5827 5828 5829 5829 5830 5830 5829 5829 5829 5828 5827 5827 5826 5826 5824 5823 5822 5821 5820 5819 5818 5817 5816 5815 5814 5813 5812 5810 5809 5807 5805 5804 5802 5801 5799 5797 5795 5794 5792 5791 5789 5788 5787 5786 5786 5786 5787 5786 5783 5780 5779 5779 5778 5777 5776 5775 5773 5772 5771 5770 5770 5769 5769 5769 5769
5814 5816 5817 5818 5819 5821 5821 5822 5822 5822 5822 5822 5822 5823 5824 5825 5825 5825 5825 5825 5825 5826 5827 5827 5827 5827 5827 5827 5827 5826 5825 5825 5824 5823 5822 5821 5820 5819 5818 5817 5816 5815 5814 5813 5811 5810 5809 5807 5805 5804 5802 5800 5799 5797 5796 5794 5792 5790 5789 5787 5786 5784 5783 5782 5781 5780 5781 5782 5781 5779 5776 5775 5774 5773 5772 5771 5770 5769 5768 5766 5765 5765 5765 5765 5765
5813 5814 5815 5817 5818 5819 5820 5820 5819 5820 5820 5820 5820 5822 5823 5823 5823 5822 5823 5823 5824 5824 5825 5825 5825 5825 5825 5825 5824 5824 5823 5823 5822 5821 5820 5819 5818 5816 5816 5815 5814 5812 5811 5810 5809 5807 5806 5804 5803 5801 5800 5798 5796 5794 5793 5791 5789 5788 5786 5784 5782 5781 5779 5778 5777 5776 5775 5775 5776 5776 5775 5772 5771 5769 5767 5766 5766 5765 5764 5762 5761 5760 5760 5760 5759
5811 5812 5814 5815 5815 5816 5817 5818 5818 5818 5819 5819 5820 5820 5821 5821 5821 5821 5822 5822 5823 5823 5823 5824 5824 5823 5823 5823 5822 5822 5821 5821 5820 5819 5817 5816 5815 5814 5813 5812 5811 5810 5808 5807 5806 5804 5803 5801 5800 5798 5797 5795 5793 5792 5790 5788 5787 5785 5783 5782 5780 5778 5776 5775 5773 5771 5770 5769 5768 5769 5770 5769 5769 5767 5764 5762 5761 5760 5759 5758 5757 5756 5754 5755 5755
5809 5810 5812 5813 5814 5814 5815 5816 5816 5817 5817 5817 5818 5818 5818 5818 5819 5819 5820 5821 5821 5822 5822 5822 5822 5821 5821 5821 5820 5820 5819 5818 5817 5816 5815 5814 5813 5811 5810 5809 5808 5807 5805 5804 5802 5801 5800 5798 5797 5795 5794 5792 5790 5789 5787 5785 5784 5782 5780 5778 5777 5775 5773 5772 5770 5768 5767 5765 5764 5763 5763 5763 5763 5763 5761 5760 5758 5756 5755 5753 5753 5751 5750 5751 5751